[TLELIST] Archives

 

[TLELIST] Current TLEs

July 9th 2024 PDT

HST 1 20580U 90037B 24190.68605313 .00004895 00000-0 22476-3 0 9992 2 20580 28.4668 201.0593 0002290 265.3521 94.6810 15.18015670680307 ISS (ZARYA) 1 25544U 98067A 24191.40827400 .00012271 00000-0 22471-3 0 9994 2 25544 51.6391 205.2418 0010232 47.6866 93.9101 15.49696549461994 CXO 1 25867U 99040B 24191.66312343 .00000408 00000-0 00000+0 0 9996 2 25867 41.6496 151.7250 8871285 297.9290 0.1797 0.37808744 25808 ...Continue Reading

[TLELIST] Current TLEs

July 9th 2024 PDT

HST 1 20580U 90037B 24190.68605313 .00004895 00000-0 22476-3 0 9992 2 20580 28.4668 201.0593 0002290 265.3521 94.6810 15.18015670680307 ISS (ZARYA) 1 25544U 98067A 24191.40827400 .00012271 00000-0 22471-3 0 9994 2 25544 51.6391 205.2418 0010232 47.6866 93.9101 15.49696549461994 CXO 1 25867U 99040B 24191.66312343 .00000408 00000-0 00000+0 0 9996 2 25867 41.6496 151.7250 8871285 297.9290 0.1797 0.37808744 25808 ...Continue Reading

[TLELIST] Current TLEs

July 8th 2024 PDT

HST 1 20580U 90037B 24189.43690992 .00004627 00000-0 21201-3 0 9998 2 20580 28.4668 209.4325 0002309 250.0269 110.0075 15.18002489680112 ISS (ZARYA) 1 25544U 98067A 24190.44377875 .00011255 00000-0 20698-3 0 9993 2 25544 51.6384 210.0211 0010380 43.2836 113.9664 15.49669940461840 CXO 1 25867U 99040B 24191.66312343 .00000408 00000-0 00000+0 0 9996 2 25867 41.6496 151.7250 8871285 297.9290 0.1797 0.37808744 25808 ...Continue Reading

[TLELIST] Current TLEs

July 7th 2024 PDT

HST 1 20580U 90037B 24189.23967556 .00004651 00000-0 21320-3 0 9998 2 20580 28.4668 210.7544 0002314 247.6974 112.3374 15.18001036680340 ISS (ZARYA) 1 25544U 98067A 24189.40743578 .00013839 00000-0 25273-3 0 9998 2 25544 51.6390 215.1492 0010356 39.7775 92.1414 15.49650187461685 CXO 1 25867U 99040B 24191.66312343 .00000408 00000-0 00000+0 0 9996 2 25867 41.6496 151.7250 8871285 297.9290 0.1797 0.37808744 25808 ...Continue Reading

[TLELIST] Current TLEs

July 6th 2024 PDT

HST 1 20580U 90037B 24187.79328495 .00005482 00000-0 25305-3 0 9990 2 20580 28.4668 220.4495 0002380 230.3875 129.6507 15.17987109679862 ISS (ZARYA) 1 25544U 98067A 24188.37371156 .00013273 00000-0 24302-3 0 9996 2 25544 51.6396 220.2669 0010280 36.3755 84.9087 15.49619186461523 CXO 1 25867U 99040B 24189.01771441 .00000371 00000-0 00000+0 0 9999 2 25867 41.5905 151.9629 8875041 297.7528 0.0769 0.37805865 25797 ...Continue Reading

[TLELIST] Current TLEs

July 5th 2024 PDT

HST 1 20580U 90037B 24186.80710137 .00005220 00000-0 24059-3 0 9994 2 20580 28.4671 227.0597 0002437 218.9416 141.1001 15.17975904679710 ISS (ZARYA) 1 25544U 98067A 24187.33936543 -.00002171 00000-0 -30369-4 0 9996 2 25544 51.6384 225.3932 0010337 32.2603 75.0138 15.49573527461367 CXO 1 25867U 99040B 24189.01771441 .00000371 00000-0 00000+0 0 9999 2 25867 41.5905 151.9629 8875041 297.7528 0.0769 0.37805865 25797 ...Continue Reading

[TLELIST] Current TLEs

July 4th 2024 PDT

HST 1 20580U 90037B 24185.82091077 .00005585 00000-0 25810-3 0 9990 2 20580 28.4674 233.6697 0002497 207.8976 152.1483 15.17965816679561 ISS (ZARYA) 1 25544U 98067A 24186.37246838 .00009107 00000-0 16974-3 0 9999 2 25544 51.6398 230.1803 0010464 29.4437 80.4610 15.49557559461213 CXO 1 25867U 99040B 24189.01719773 .00000371 00000-0 00000+0 0 9999 2 25867 41.5904 151.9627 8875050 297.7533 0.0063 0.37805279 25796 ...Continue Reading

[TLELIST] Current TLEs

July 4th 2024 PDT

HST 1 20580U 90037B 24185.82091077 .00005585 00000-0 25810-3 0 9990 2 20580 28.4674 233.6697 0002497 207.8976 152.1483 15.17965816679561 ISS (ZARYA) 1 25544U 98067A 24186.37246838 .00009107 00000-0 16974-3 0 9999 2 25544 51.6398 230.1803 0010464 29.4437 80.4610 15.49557559461213 CXO 1 25867U 99040B 24189.01719773 .00000371 00000-0 00000+0 0 9999 2 25867 41.5904 151.9627 8875050 297.7533 0.0063 0.37805279 25796 ...Continue Reading

[TLELIST] Current TLEs

July 3rd 2024 PDT

HST 1 20580U 90037B 24184.44023262 .00005961 00000-0 27626-3 0 9993 2 20580 28.4678 242.9233 0002583 192.7302 167.3225 15.17950114679359 ISS (ZARYA) 1 25544U 98067A 24185.47368093 .00013894 00000-0 25469-3 0 9994 2 25544 51.6396 234.6273 0010084 25.6108 107.2101 15.49541502461070 CXO 1 25867U 99040B 24186.37207818 .00000303 00000-0 00000-0 0 9993 2 25867 41.5303 152.2092 8877997 297.5665 359.9725 0.37806437 14623 ...Continue Reading

[TLELIST] Current TLEs

July 3rd 2024 PDT

HST 1 20580U 90037B 24184.44023262 .00005961 00000-0 27626-3 0 9993 2 20580 28.4678 242.9233 0002583 192.7302 167.3225 15.17950114679359 ISS (ZARYA) 1 25544U 98067A 24185.47368093 .00013894 00000-0 25469-3 0 9994 2 25544 51.6396 234.6273 0010084 25.6108 107.2101 15.49541502461070 CXO 1 25867U 99040B 24186.37207818 .00000303 00000-0 00000-0 0 9993 2 25867 41.5303 152.2092 8877997 297.5665 359.9725 0.37806437 14623 ...Continue Reading
  • This mailing list is a public mailing list - anyone may join or leave, at any time.
  • This mailing list is announce-only.

International Space Station (ISS) / Hubble Space Telescope (HST) / Chandra X-Ray Observatory Orbital Data via EMAIL

Privacy Policy:

Private list